Regional Weather Roundup
Issued by NWS Raleigh/Durham, NC

Home | Current Version | Previous Version | Text Only | Print | Product List | Glossary On
Versions: 1 2 3 4 5 6 7 8 9 10 11 12 13 14 15 16 17 18 19 20 21 22 23 24 25 26 27 28 29 30 31 32 33 34 35 36 37 38 39 40 41 42 43 44 45 46 47 48 49 50
487
ASUS42 KRAH 301710
RWRRAH
NORTH CAROLINA WEATHER ROUNDUP
NATIONAL WEATHER SERVICE RALEIGH NC
100 PM EDT SAT JUL 30 2016

NOTE: "FAIR" INDICATES FEW OR NO CLOUDS BELOW 12,000 FEET WITH NO
SIGNIFICANT WEATHER AND/OR OBSTRUCTIONS TO VISIBILITY.

NCZ001-053-055-056-065-067-301800-
WESTERN NORTH CAROLINA

CITY           SKY/WX    TMP DP  RH WIND       PRES   REMARKS
ASHEVILLE      RAIN      80  68  66 NW7       30.10F
JEFFERSON      CLOUDY    77  64  62 W10       30.15S
MORGANTON      CLOUDY    86  69  55 S5        30.08F
HICKORY        CLOUDY    86  70  58 NW5       30.04F
RUTHERFORDTON    N/A     85  72  64 CALM      30.05F
MOUNT AIRY     MOSUNNY   88  71  56 NE3       30.04F
BOONE          CLOUDY    78  63  60 CALM      30.16S
$$

NCZ021-022-025-041-071-084-088-301800-
CENTRAL NORTH CAROLINA

CITY           SKY/WX    TMP DP  RH WIND       PRES   REMARKS
CHARLOTTE      CLOUDY    87  70  56 VRB5      30.03F
GREENSBORO     PTSUNNY   89  69  51 W7        30.00F
WINSTON-SALEM  SUNNY     88  69  53 NW3       30.02F
RALEIGH-DURHAM PTSUNNY   91  73  55 SW14      29.97F HX  99
FORT BRAGG     SUNNY     94  71  46 VRB7      29.97F HX 101
FAYETTEVILLE   SUNNY     97  69  40 W14G21    29.96F HX 103
BURLINGTON     LGT RAIN  87  74  64 NW6       29.99S HX  95
LAURINBURG     MOSUNNY   97  70  41 W13       29.99F HX 103
$$

NCZ011-015-027-028-043-044-047-080-103-301800-
NORTHEASTERN NORTH CAROLINA

CITY           SKY/WX    TMP DP  RH WIND       PRES   REMARKS
ROCKY MT-WILSO CLOUDY    89  77  67 S7        29.97F HX 101
GREENVILLE     CLOUDY    95  77  55 S8        29.98F HX 109
WASHINGTON     SUNNY     91  78  67 SE9       29.97F HX 105
ELIZABETH CITY MOSUNNY   91  73  55 E12       29.99F HX  99
MANTEO         CLOUDY    86  77  75 E13       30.00F HX  97
CAPE HATTERAS  CLOUDY    85  79  82 E7        30.00F HX  98
$$

NCZ078-087-090-091-093-098-101-301800-
SOUTHEASTERN NORTH CAROLINA

CITY           SKY/WX    TMP DP  RH WIND       PRES   REMARKS
LUMBERTON      SUNNY     95  71  45 W17G23    29.97F HX 102
GOLDSBORO      PTSUNNY   81  73  78 VRB5G21   29.95F THUNDER
KINSTON        SUNNY     97  72  44 S9        29.96F HX 105
KENANSVILLE    NOT AVBL
NEW BERN       SUNNY     94  77  57 S8        29.99F HX 108
CHERRY POINT   MOSUNNY   93  75  55 VRB3      29.99S HX 104
BEAUFORT       PTSUNNY   87  81  82 S12       30.00R HX 104
JACKSONVILLE   MOSUNNY   95  72  47 S7        29.97F HX 103
WILMINGTON     MOSUNNY   95  73  48 SW10      29.98F HX 104
$$





USA.gov is the U.S. government's official web portal to all federal, state and local government web resources and services.